Regional Weather Roundup
Issued by NWS Northern Indiana

Home | Current Version | Previous Version | Text Only | Print | Product List | Glossary Off
Versions: 1 2 3 4 5 6 7 8 9 10 11 12 13 14 15 16 17 18 19 20 21 22 23 24 25 26 27 28 29 30 31 32 33 34 35 36 37 38 39 40 41 42 43 44 45 46 47 48 49 50

000
ASUS43 KIWX 240300
RWRIWX

KIWX WEATHER ROUNDUP
NATIONAL WEATHER SERVICE NORTHERN INDIANA
1100 PM EDT WED APR 23 2014

NOTE: "FAIR" INDICATES FEW OR NO CLOUDS BELOW 12,000 FEET WITH NO
SIGNIFICANT WEATHER AND/OR OBSTRUCTIONS TO VISIBILITY.

* THESE STATIONS ARE NOT UNDER NWS QUALITY CONTROL. THEY ALSO MAY NOT
  REPORT WEATHER SUCH AS PRECIPITATION OR FOG.

INZ001>027-240400-
NORTHERN INDIANA

CITY           SKY/WX    TMP DP  RH WIND       PRES   REMARKS
GARY*          CLOUDY    41  32  70 NE9       30.10F
VALPARAISO     CLOUDY    40  29  64 NE7       30.09F
LAPORTE*       CLOUDY    41  28  60 NE3       30.10F
SOUTH BEND     CLOUDY    44  29  55 N3        30.11F
GOSHEN         CLOUDY    48  34  58 N7        30.10R
MONTICELLO*    CLOUDY    50  37  59 NE7       30.07F
ANGOLA*        CLEAR     46  32  57 CALM      30.10S
FORT WAYNE     MOCLDY    49  27  42 NE6       30.10S

$$
INZ028>050-240400-
CENTRAL INDIANA

CITY           SKY/WX    TMP DP  RH WIND       PRES   REMARKS
LAFAYETTE      CLOUDY    52  31  44 E8        30.06F
KOKOMO*        CLOUDY    52  34  50 CALM      30.09S
MUNCIE*          N/A     48  31  51 E3        30.09R
INDIANAPOLIS   CLOUDY    54  31  41 NE3       30.09R

$$
MIZ043>046-050>051-056>058-064>065-071>073-077>080-240400-
SOUTHWEST LOWER MICHIGAN

CITY           SKY/WX    TMP DP  RH WIND       PRES   REMARKS
BATTLE CREEK   CLOUDY    48  31  51 NW5       30.11S
BENTON HARBOR  CLOUDY    39  25  57 CALM      30.11F
COLDWATER*     CLOUDY    48  21  34 E3        30.10F
HILLSDALE*     CLOUDY    48  20  32 CALM      30.11R
HOLLAND        CLOUDY    46  23  40 CALM      30.11F
GRAND RAPIDS   CLOUDY    48  26  42 NW3       30.11S
KALAMAZOO      CLOUDY    48  29  47 N5        30.11S
STURGIS*       CLOUDY    48  32  53 N3        30.10S
THREE RIVERS*  FAIR      49  31  50 CALM      30.10F

$$
OHZ001>008-015>018-024>025-240400-
NORTHWEST OHIO

CITY           SKY/WX    TMP DP  RH WIND       PRES   REMARKS
DEFIANCE       CLOUDY    51  24  34 E3        30.11R
FINDLAY        CLOUDY    47  32  56 SE7       30.10S
TOLEDO EXPRESS CLOUDY    46  29  51 E8        30.12R
TOLEDO METCALF MOCLDY    45  29  53 E6        30.13R
LIMA           MOCLDY    48  34  58 SE10      30.10S

$$
&&



USA.gov is the U.S. government's official web portal to all federal, state and local government web resources and services.